Regional Weather Roundup
Issued by NWS Charleston, SC

Current Version | Previous Version | Graphics & Text | Print | Product List | Glossary On
Versions: 1 2 3 4 5 6 7 8 9 10 11 12 13 14 15 16 17 18 19 20 21 22 23 24 25 26 27 28 29 30 31 32 33 34 35 36 37 38 39 40 41 42 43 44 45 46 47 48 49 50
000 ASUS42 KCHS 180525 RWRCHS REGIONAL WEATHER ROUNDUP NATIONAL WEATHER SERVICE CHARLESTON SC 1200 AM EST THU DEC 18 2014 NOTE: "FAIR" INDICATES FEW OR NO CLOUDS BELOW 12,000 FEET WITH NO SIGNIFICANT WEATHER AND/OR OBSTRUCTIONS TO VISIBILITY. NOT ALL STATIONS ARE QUALITY CONTROLLED BY THE NATIONAL WEATHER SERVICE. USE DATA WITH CAUTION...ESPECIALLY DEWPOINT OBSERVATIONS. SCZ027-030-031-034>040-042>050-180600- ...SOUTHEAST SOUTH CAROLINA... CITY SKY/WX TMP DP RH WIND PRES REMARKS N CHARLESTON PTCLDY 45 42 89 CALM 30.11F WATERFRONT PRK N/A 48 N/A N/A W5 N/A MOUNT PLEASANT LGT RAIN 39 39 100 CALM 30.11S PINOPOLIS N/A 50 45 81 VRB3 30.03R MONCKS CORNER FAIR 39 36 87 CALM 30.10F SUMMERVILLE NOT AVBL BEAUFORT MCAS PTCLDY 44 41 89 SW3 30.12S BEAUFORT ARPT FAIR 45 45 100 CALM 30.11S HILTON HEAD IS CLEAR 45 45 100 CALM 30.13S WALTERBORO CLEAR 37 N/A N/A CALM 30.11F ALLENDALE FAIR 41 39 93 CALM 30.10F ...SOUTHERN MIDLANDS AND PEE DEE... CITY SKY/WX TMP DP RH WIND PRES REMARKS GEORGETOWN NOT AVBL KINGSTREE NOT AVBL ORANGEBURG CLEAR 39 37 92 CALM 30.10F BARNWELL N/A 36 36 100 CALM 30.11F AIKEN FAIR 37 37 100 CALM 30.13F MANNING NOT AVBL COLUMBIA PTCLDY 38 35 89 W5 30.09F WCI 34 SUMTER CLEAR 39 37 92 SW2 30.07F FLORENCE PTCLDY 39 37 92 CALM 30.08F MYRTLE BEACH CLEAR 43 37 81 CALM 30.10S N MYRTLE BEACH CLEAR 44 41 89 W3 30.09F $$ GAZ063-065-086>088-099>101-113>116-118-119-134>141-150-180600- ...SOUTHEAST GEORGIA... CITY SKY/WX TMP DP RH WIND PRES REMARKS SAVANNAH ARPT MOCLDY 47 40 76 CALM 30.13S HUNTER AAF PTCLDY 43 42 94 CALM 30.11S FORT STEWART PTCLDY 42 39 92 CALM 30.12S STATESBORO PTCLDY 37 37 100 CALM 30.12S SYLVANIA CLEAR 38 38 100 CALM 30.12F CLAXTON FAIR 36 36 100 CALM 30.13S ...CSRA...CENTRAL AND FAR SOUTHEAST GEORGIA... CITY SKY/WX TMP DP RH WIND PRES REMARKS THOMSON PTCLDY 39 39 100 CALM 30.15F AUGUSTA-BUSH CLEAR 36 34 92 CALM 30.12F AUGUSTA-DANIEL CLEAR 46 38 73 W7 30.11F SWAINSBORO FAIR 41 41 100 CALM 30.13F VIDALIA PTCLDY 41 39 93 NW3 30.14R EASTMAN FAIR 39 39 100 CALM 30.17S HAZLEHURST FAIR 43 43 100 CALM 30.13S ALMA PTCLDY 40 38 93 CALM 30.14S WAYCROSS PTCLDY 46 44 92 W3 30.15S JESUP FAIR 41 39 93 CALM 30.13F BAXLEY FAIR 41 39 93 CALM 30.13F BRUNSWICK CLEAR 43 43 100 CALM 30.14S SAINT SIMONS CLEAR 47 44 90 CALM 30.13F $$ SCZ027-028-034-036>038-045-046-048>050-GAZ119-141-180600- ...LAKE AND SUPPLEMENTAL COASTAL OBSERVATIONS... STATION/POSITION TIME TEMP WIND PRES WAVE SWELL AIR SEA DIR/SP/G HT/PER HT/PER/DIR (UTC) (F) (DEG/KT/KT) (MB) (FT/S) (FT/S/D) UPR LAKE MARION NOT AVBL WINYAH BAY 0500 47 260/ 2 1018.0S LAKE MURRAY 0400 47 280/ 2/ 3 1018.6S ACE BASIN NERRS 0500 43 CALM 1019.0S FORT PULASKI 0500 49 56 180/ 1/ 2 1020.1F SAPELO ISLAND 0500 48 200/ 3 1020.0S $$ ANZ835-935-AMZ111-154-330-350-352-354-370-450-454-472-180600- ...C-MAN AND BUOY OBSERVATIONS... STATION/POSITION TIME TEMP WIND PRES WAVE SWELL AIR SEA DIR/SP/G HT/PER HT/PER/DIR (UTC) (F) (DEG/KT/KT) (MB) (FT/S) (FT/S/D) BUOY 41004 0500 61 73 270/ 10/ 14 1019.2F 1/11 2/11 BUOY 41008 0500 57 57 270/ 6/ 6 1020.2F 1/10 2/100/10 FOLLY BEACH CMAN 0500 49 260/ 5/ 6 1020.1F CAPERS NEARSHORE NOT AVBL FRIPP NEARSHORE NOT AVBL STATION/POSITION TIME TEMP WIND PRES WAVE SWELL AIR SEA DIR/SP/G HT/PER HT/PER/DIR (UTC) (F) (DEG/KT/KT) (MB) (FT/S) (FT/S/D) 5E ST. MARYS GA 0500 61 N/A 1/11 FRYING PAN BUOY 0500 59 65 280/ 12/ 14 1019.7F 2/10 2/100/10 BUOY 41025 0500 56 1018.1F 3/ 4 CAPE LOOKOUT NC 0500 55 260/ 7/ 8 1018.0F BUOY 41002 0412 68 72 280/ 6/ 10 1018.9F 5/ 7 5/320/ 7 BUOY 41010 0500 70 76 290/ 10/ 12 1020.9F 3/10 2/110/10 ST AUGUSTINE FL 0500 56 280/ 5/ 5 1021.4F $$

USA.gov is the U.S. government's official web portal to all federal, state and local government web resources and services.